Location: ?ernice
(48.8383°N, 14.3803°E)
Time: 20:17:45
(UTC+00:00)

Cosmos 2360 Rocket - Pass Details

Date: 23 May 2024
Orbit: 832 x 846 km, 71.0° (Epoch: 20 June)

Event Time Altitude Azimuth Distance (km) Brightness Sun altitude
Rises 00:13:56 0° 335° (NNW) 3,416 6.1 -18.6°
Reaches altitude 10° 00:16:36 10° 344° (NNW) 2,478 5.4 -18.4°
Maximum altitude 00:21:48 35° 50° (NE) 1,336 3.8 -18.1°
Drops below altitude 10° 00:26:58 10° 115° (ESE) 2,466 4.6 -17.8°
Sets 00:29:37 0° 125° (SE) 3,397 5.2 -17.7°
